Weather History for KBKE - March, 2013

Change the Weather History Date:

Thursday, March 21, 2013

  Actual Average Record
Temperature  
Mean Temperature 32 °F 39 °F  
Max Temperature 43 °F 52 °F 71 °F (1978)
Min Temperature 20 °F 26 °F 16 °F (2014)
Degree Days  
Heating Degree Days 33 26  
Month to date heating degree days 579 600  
Since 1 July heating degree days 5971 6120  
Cooling Degree Days 0 0  
Month to date cooling degree days 0 0  
Year to date cooling degree days 0 0  
Moisture  
Dew Point 21 °F    
Average Humidity 61    
Maximum Humidity 92    
Minimum Humidity 30    
Precipitation  
Precipitation 0.02 in 0.03 in 0.51 in (2011)
Month to date precipitation 0.21 0.55  
Year to date precipitation 1.48 1.93  
Sea Level Pressure  
Sea Level Pressure 30.07 in    
Wind  
Wind Speed 9 mph (WNW)    
Max Wind Speed 25 mph    
Max Gust Speed 30 mph    
Visibility 8 miles    
Events Fog , Snow    
T = Trace of Precipitation, MM = Missing Value Source: NWS Daily Summary

Daily Weather History Graph

Daily Weather History Graph

Search for Another Location

Airport or City:

Trip Planner

Search our weather history database for the weather conditions in past years. The results will help you decide how hot, cold, wet, or windy it might be!

Date:

Astronomy

Mar. 21, 2013 Rise Set
Actual Time 6:51 AM PDT 7:05 PM PDT
Civil Twilight 6:22 AM PDT 7:34 PM PDT
Nautical Twilight 5:48 AM PDT 8:09 PM PDT
Astronomical Twilight 5:13 AM PDT 8:44 PM PDT
Moon 1:27 PM PDT (3/21) 3:29 AM PDT (3/21)
Length of Visible Light 13h 12m
Length of Day
12h 13m
Waxing Gibbous, 69% of the Moon is Illuminated
Mar 21
Waxing Gibbous
Mar 27
Full
Apr 2
Last Quarter
Apr 10
New
Apr 18
First Quarter

Hourly Weather History & Observations

Time (PDT) Temp. Windchill Dew Point Humidity Pressure Visibility Wind Dir Wind Speed Gust Speed Precip Events Conditions
12:53 AM 30.0 °F 19.1 °F 21.9 °F 72% 29.94 in 10.0 mi NNW 15.0 mph 18.4 mph N/A   Unknown
1:53 AM 30.9 °F - 21.9 °F 69% 29.96 in 10.0 mi Calm Calm - N/A   Mostly Cloudy
2:53 AM 30.0 °F 21.7 °F 19.9 °F 66% 29.98 in 10.0 mi WNW 9.2 mph - N/A   Overcast
3:53 AM 28.0 °F 16.1 °F 18.0 °F 66% 30.03 in 10.0 mi NW 16.1 mph 21.9 mph N/A   Partly Cloudy
4:53 AM 28.9 °F 19.8 °F 14.0 °F 54% 30.06 in 10.0 mi WNW 10.4 mph - N/A   Scattered Clouds
5:53 AM 26.1 °F - 14.0 °F 60% 30.08 in 10.0 mi Calm Calm - N/A   Clear
6:53 AM 21.0 °F 11.4 °F 12.9 °F 71% 30.12 in 10.0 mi SE 8.1 mph - N/A   Clear
7:53 AM 30.0 °F - 15.1 °F 54% 30.12 in 10.0 mi Calm Calm - N/A   Clear
8:53 AM 33.1 °F 30.0 °F 14.0 °F 46% 30.13 in 10.0 mi Variable 3.5 mph - N/A   Clear
9:53 AM 34.0 °F - 15.1 °F 46% 30.12 in 10.0 mi Calm Calm - N/A   Mostly Cloudy
10:53 AM 37.9 °F 35.5 °F 12.9 °F 36% 30.12 in 10.0 mi Variable 3.5 mph - N/A   Scattered Clouds
11:53 AM 41.0 °F 34.3 °F 12.9 °F 32% 30.12 in 10.0 mi West 11.5 mph - N/A   Overcast
12:53 PM 39.0 °F 31.0 °F 10.0 °F 30% 30.11 in 10.0 mi West 13.8 mph 17.3 mph N/A   Mostly Cloudy
1:53 PM 41.0 °F 39.0 °F 12.9 °F 32% 30.09 in 10.0 mi Variable 3.5 mph - N/A   Mostly Cloudy
2:53 PM 39.9 °F 32.5 °F 19.0 °F 43% 30.08 in 10.0 mi NNE 12.7 mph 23.0 mph N/A   Overcast
3:03 PM 39.2 °F 31.2 °F 19.4 °F 45% 30.03 in 10.0 mi NNE 13.8 mph 21.9 mph N/A   Overcast
3:53 PM 36.0 °F 26.3 °F 21.9 °F 57% 30.09 in 10.0 mi NW 16.1 mph 29.9 mph N/A   Mostly Cloudy
4:53 PM 39.9 °F 31.8 °F 23.0 °F 51% 30.07 in 10.0 mi NNE 15.0 mph 18.4 mph N/A   Overcast
5:53 PM 33.1 °F 20.6 °F 24.1 °F 70% 30.09 in 10.0 mi NW 23.0 mph 29.9 mph 0.00 in   Overcast
6:07 PM 32.0 °F 20.5 °F 21.2 °F 64% 30.02 in 10.0 mi NW 18.4 mph 25.3 mph N/A   Mostly Cloudy
6:53 PM 32.0 °F 23.0 °F 21.9 °F 66% 30.12 in 10.0 mi NW 11.5 mph - N/A   Mostly Cloudy
7:53 PM 30.0 °F 21.1 °F 23.0 °F 75% 30.12 in 10.0 mi WNW 10.4 mph - N/A   Overcast
8:21 PM 28.4 °F 22.2 °F 24.8 °F 86% 30.05 in 2.5 mi WSW 5.8 mph - 0.00 in Snow Light Snow
8:40 PM 28.4 °F - 26.6 °F 93% 30.05 in 7.0 mi Calm Calm - 0.00 in Snow Light Snow
8:53 PM 27.0 °F 23.0 °F 25.0 °F 92% 30.13 in 10.0 mi South 3.5 mph - 0.00 in   Overcast
9:08 PM 28.4 °F 17.0 °F 26.6 °F 93% 30.07 in 1.5 mi West 15.0 mph 18.4 mph 0.00 in Snow Light Snow
9:10 PM 28.4 °F 15.8 °F 26.6 °F 93% 30.07 in 0.8 mi West 18.4 mph 26.5 mph 0.00 in Snow Light Snow
9:18 PM 26.6 °F 14.7 °F 24.8 °F 93% 30.07 in 0.5 mi West 15.0 mph 26.5 mph 0.01 in Fog , Snow Snow
9:24 PM 26.6 °F 18.2 °F 24.8 °F 93% 30.06 in 0.8 mi West 8.1 mph 21.9 mph 0.01 in Snow Light Snow
9:28 PM 26.6 °F 18.2 °F 24.8 °F 93% 30.06 in 2.0 mi West 8.1 mph - 0.01 in Snow Light Snow
9:36 PM 26.6 °F 19.1 °F 24.8 °F 93% 30.05 in 9.0 mi West 6.9 mph - 0.01 in   Overcast
9:45 PM 26.6 °F 19.1 °F 24.8 °F 93% 30.05 in 10.0 mi WSW 6.9 mph - 0.01 in   Overcast
9:53 PM 27.0 °F 19.5 °F 25.0 °F 92% 30.12 in 10.0 mi SW 6.9 mph - 0.01 in   Overcast
10:10 PM 28.4 °F 18.5 °F 24.8 °F 86% 30.05 in 2.0 mi WSW 11.5 mph - 0.00 in Snow Light Snow
10:17 PM 26.6 °F 17.5 °F 24.8 °F 93% 30.06 in 0.8 mi WSW 9.2 mph - 0.00 in Snow Light Snow
10:32 PM 28.4 °F 19.7 °F 24.8 °F 86% 30.05 in 2.0 mi WSW 9.2 mph - 0.01 in Snow Light Snow
10:40 PM 28.4 °F 18.5 °F 24.8 °F 86% 30.05 in 9.0 mi WSW 11.5 mph - 0.01 in   Overcast
10:53 PM 28.0 °F 17.5 °F 25.0 °F 88% 30.12 in 8.0 mi West 12.7 mph - 0.01 in Snow Light Snow
11:53 PM 28.9 °F 16.9 °F 19.0 °F 67% 30.10 in 10.0 mi WNW 17.3 mph 28.8 mph 0.00 in   Mostly Cloudy